Tracking 29594 objects as of 20-Sep-2024
HD Live streaming from Space Station
objects crossing your sky now

BREEZE-M R/B

Track BREEZE-M R/B now!


NORAD ID: 40278
Int'l Code: 2014-064B
Perigee: 34,662.9 km
Apogee: 39,880.1 km
Inclination: 7.6 °
Period: 1,512.3 minutes
Semi major axis: 43642 km
RCS: Unknown
Launch date: October 21, 2014
Source: Commonwealth of Independent States (former USSR) (CIS)
Launch site: TYURATAM MISSILE AND SPACE COMPLEX (TTMTR)

Note: This is a ROCKET BODY
Your satellite tracking list
Your tracking list is empty




NASA's NSSDC Master Catalog

Two Line Element Set (TLE):
1 40278U 14064B   24263.87806498 -.00000145  00000-0  00000+0 0  9993
2 40278   7.6453  68.9216 0597719 202.1372 155.3771  0.95222334 34494
Source of the keplerian elements: AFSPC